Flag for Canada Weather past 2 weeks in Conception Bay South, Newfoundland and Labrador, Canada

46 °F

Broken clouds.

Feels Like: 36 °F
Forecast: 35 / 46 °F
Wind: 35 mph from Southwest

Location: St. John's

Current Time: Nov 27, 2015 at 3:35:38 PM

Latest Report: Nov 27, 2015 at 2:30 PM

Visibility: 15 mi

Pressure: 30.30 "Hg

Humidity: 66%

Dew point: 36 °F

Location of Conception Bay SouthLocation

Historic Weather in Conception Bay South — Graph


Conception Bay South temperature yesterday

Maximum temperature yesterday: 34 °F (at 1:30 PM)
Minimum temperature yesterday: 25 °F (at 6:30 AM)
Average temperature yesterday: 30 °F

Past Weeks' High & Low Weather Summary

High50 °F (Nov 24, 1:30 PM)100% (Nov 14, 8:30 AM)30.98 "Hg (Nov 14, 8:30 AM)
Low25 °F (Nov 26, 6:30 AM)51% (Nov 26, 1:30 PM)29.31 "Hg (Nov 15, 3:30 AM)
Average35 °F87%30.13 "Hg
* Reported Nov 12 2:30 PM — Nov 27 2:30 PM, Conception Bay South, Weather by CustomWeather, © 2015

Note: Actual official high and low records may vary slightly from our data, if they occured in-between our weather recording intervals... More about our weather records


Conception Bay South weather history for previous 24 hours

Time TempWeatherWind HumidityBarometerVisibility
2:30 PM
Fri, Nov 27
46 °FBroken clouds.35 mph66%30.30 "Hg15 mi
1:30 PM48 °FBroken clouds.41 mph62%30.31 "Hg15 mi
12:30 PM46 °FPartly sunny.37 mph71%30.36 "Hg15 mi
11:30 AM46 °FMostly cloudy.30 mph71%30.37 "Hg15 mi
10:30 AM43 °FCloudy.28 mph76%30.44 "Hg15 mi
9:30 AM41 °FMore clouds than sun.29 mph81%30.47 "Hg15 mi
8:30 AM39 °FMostly cloudy.29 mph81%30.52 "Hg15 mi
7:30 AM39 °FBroken clouds.28 mph75%30.54 "Hg15 mi
6:30 AM39 °FOvercast.32 mph75%30.54 "Hg15 mi
5:30 AM37 °FOvercast.31 mph81%30.56 "Hg15 mi
4:30 AM37 °FOvercast.35 mph75%30.58 "Hg15 mi
2:30 AM36 °FPassing clouds.25 mph81%30.65 "Hg15 mi
1:30 AM36 °FOvercast.31 mph75%30.67 "Hg15 mi
12:30 AM34 °FPassing clouds.29 mph81%30.69 "Hg15 mi
11:30 PM
Thu, Nov 26
34 °FPassing clouds.24 mph81%30.74 "Hg15 mi
10:30 PM34 °FPassing clouds.23 mph75%30.76 "Hg15 mi
9:30 PM32 °FPassing clouds.23 mph75%30.79 "Hg15 mi
8:30 PM32 °FPassing clouds.23 mph75%30.83 "Hg15 mi
7:30 PM30 °FPassing clouds.21 mph75%30.85 "Hg15 mi
6:30 PM30 °FClear.15 mph69%30.86 "Hg15 mi
5:30 PM30 °FPassing clouds.10 mph64%30.88 "Hg15 mi
4:30 PM30 °FPassing clouds.13 mph59%30.89 "Hg15 mi
3:30 PM32 °FPassing clouds.14 mph55%30.90 "Hg15 mi
Weather by CustomWeather, © 2015

See weather overviewHow to use our weather pages